Preview of NWS' New Version of Forecast
This preview is not operational and should not be used for support decisions.

Regional Weather Roundup (RWR)

Issued by National Weather Service (NWS)

                            
000
ASUS43 KMKX 241811
RWRWI 

WISCONSIN REGIONAL WEATHER ROUNDUP
NATIONAL WEATHER SERVICE MILWAUKEE/SULLIVAN WI
100 PM CDT SUN MAR 24 2019

NOTE: "FAIR" INDICATES FEW OR NO CLOUDS BELOW 12,000 FEET WITH NO
SIGNIFICANT WEATHER AND/OR OBSTRUCTIONS TO VISIBILITY.

WIZ001-002-006>008-014>016-023>028-241900-
NORTHWEST WISCONSIN
  
CITY           SKY/WX    TMP DP  RH WIND       PRES   REMARKS
SUPERIOR ARPT  CLOUDY    29  22  74 E17G32    30.29R WCI  18          
6HR MIN TEMP:  29; 6HR MAX TEMP:  33;                                

ASHLAND        CLOUDY    28  20  71 NE25      30.29R WCI  13          
6HR MIN TEMP:  28; 6HR MAX TEMP:  35;                                

HAYWARD        FAIR      33  23  66 NE17      30.19R WCI  22          
6HR MIN TEMP:  23; 6HR MAX TEMP:  35;                                

SIREN          CLOUDY    38  26  62 NE10G18   30.19R WCI  31          
6HR MIN TEMP:  24; 6HR MAX TEMP:  39;                                

CUMBERLAND     CLOUDY    36  28  75 NE7       30.14S WCI  30          
RICE LAKE      CLOUDY    39  33  79 N12       30.15R WCI  31          
6HR MIN TEMP:  29; 6HR MAX TEMP:  41;                                

CHETEK         PTSUNNY   44  31  61 E6        30.13S                  
6HR MIN TEMP:  27; 6HR MAX TEMP:  46;                                

LADYSMITH      CLOUDY    40  31  71 N10       30.15S WCI  33          
6HR MIN TEMP:  28; 6HR MAX TEMP:  42;                                

EAU CLAIRE     FAIR      47  33  58 VRB5      30.11R                  
6HR MIN TEMP:  30; 6HR MAX TEMP:  47;                                

MENOMONIE      FAIR      43  32  63 N10       30.11S                  
6HR MIN TEMP:  28; 6HR MAX TEMP:  43;                                

NEW RICHMOND   FAIR      47  34  59 N13       30.12S                  
6HR MIN TEMP:  32; 6HR MAX TEMP:  48;                                

OSCEOLA        CLOUDY    41  34  74 N10       30.17R                  
6HR MIN TEMP:  32; 6HR MAX TEMP:  47;                                

$$
 
WIZ003>005-009-010-017-018-241900-
NORTH CENTRAL WISCONSIN
  
CITY           SKY/WX    TMP DP  RH WIND       PRES   REMARKS
MANITOWISH WTR NOT AVBL                                               
ARBOR VITAE    CLOUDY    37  25  64 NE9       30.15S WCI  30          
6HR MIN TEMP:  32; 6HR MAX TEMP:  37;                                

WOODRUFF       CLOUDY    37  25  64 NE9       30.15S WCI  30          
6HR MIN TEMP:  32; 6HR MAX TEMP:  37;                                

RHINELANDER    CLOUDY    36  25  64 NE9       30.14R WCI  29          
6HR MIN TEMP:  28; 6HR MAX TEMP:  38;                                

EAGLE RIVER    CLOUDY    32  20  62 NE14      30.16R WCI  22          
6HR MIN TEMP:  23; 6HR MAX TEMP:  32;                                

LAND O LAKES   NOT AVBL                                               
PHILLIPS       CLOUDY    37  27  67 NE12G17   30.14R WCI  30          
6HR MIN TEMP:  22; 6HR MAX TEMP:  38;                                

TOMAHAWK       CLOUDY    37  28  69 NE6       30.14R WCI  32          
6HR MIN TEMP:  22; 6HR MAX TEMP:  40;                                

MEDFORD        FAIR      41  28  59 NE7       30.10S                  
6HR MIN TEMP:  28; 6HR MAX TEMP:  41;                                

MERRILL        FAIR      43  28  55 E8        30.11S                  
6HR MIN TEMP:  22; 6HR MAX TEMP:  44;                                

$$
 
WIZ029-030-035-036-043>047-241900-
CENTRAL WISCONSIN
  
CITY           SKY/WX    TMP DP  RH WIND       PRES   REMARKS
WAUSAU         FAIR      46  30  53 E9        30.08S                  
6HR MIN TEMP:  29; 6HR MAX TEMP:  47;                                

MOSINEE        PTSUNNY   46  34  61 NE7       30.11S                  
MARSHFIELD     FAIR      48  36  63 NE12      30.08S                  
6HR MIN TEMP:  33; 6HR MAX TEMP:  50;                                

STEVENS POINT  FAIR      49  32  52 CALM      30.10S                  
6HR MIN TEMP:  28; 6HR MAX TEMP:  49;                                

WAUPACA        FAIR      53  32  45 NE7       30.11S                  
6HR MIN TEMP:  32; 6HR MAX TEMP:  54;                                

WAUTOMA        CLOUDY    48  33  56 CALM      30.10S                  
6HR MIN TEMP:  27; 6HR MAX TEMP:  49;                                

WISC RAPIDS    FAIR      49  30  48 N7        30.10S                  
6HR MIN TEMP:  31; 6HR MAX TEMP:  49;                                

CAMP DOUGLAS   CLOUDY    50  34  53 NE3       30.08                   
$$
 
WIZ011>013-019>022-031-037>040-048>050-241900-
NORTHEAST WISCONSIN
  
CITY           SKY/WX    TMP DP  RH WIND       PRES   REMARKS
ANTIGO         FAIR      41  31  66 NE9       30.10S                  
6HR MIN TEMP:  27; 6HR MAX TEMP:  41;                                

SHAWANO        FAIR      46  32  58 E12       30.14S                  
6HR MIN TEMP:  34; 6HR MAX TEMP:  48;                                

OCONTO         FAIR      40  29  64 N9        30.15S WCI  34          
6HR MIN TEMP:  30; 6HR MAX TEMP:  41;                                

STURGEON BAY   FAIR      37  28  70 N21       30.15  WCI  26          
6HR MIN TEMP:  35; 6HR MAX TEMP:  40;                                

GREEN BAY      FAIR      43  32  65 NE15      30.15R                  
6HR MIN TEMP:  35; 6HR MAX TEMP:  49;                                

MANITOWOC      FAIR      41  31  67 NE8       30.13S                  
6HR MIN TEMP:  30; 6HR MAX TEMP:  46;                                

APPLETON       PTSUNNY   45  27  49 NE13G20   30.10R                  
CLINTONVILLE   FAIR      45  28  51 NE12      30.13R                  
6HR MIN TEMP:  32; 6HR MAX TEMP:  49;                                

OSHKOSH        CLOUDY    45  33  63 NE9       30.10S                  
6HR MIN TEMP:  32; 6HR MAX TEMP:  48;                                

$$
 
WIZ032>034-041-042-053>061-241900-
SOUTHWEST WISCONSIN
  
CITY           SKY/WX    TMP DP  RH WIND       PRES   REMARKS
LA CROSSE      PTSUNNY   49  36  61 NW8       30.08F                  
6HR MIN TEMP:  36; 6HR MAX TEMP:  50; 6HR PCP: TRACE;                

SPARTA         CLOUDY    50  34  53 N7        30.09F                  
6HR MIN TEMP:  33; 6HR MAX TEMP:  50;                                

VIROQUA        CLOUDY    52  36  53 NE10      30.06F                  
6HR MIN TEMP:  38; 6HR MAX TEMP:  52;                                

BOSCOBEL       CLOUDY    49  40  71 N5        30.07F                  
6HR MIN TEMP:  38; 6HR MAX TEMP:  49; 6HR PCP: TRACE;                

PRAIRIE DU CHI CLOUDY    42  40  94 CALM      30.06F FOG              
6HR MIN TEMP:  38; 6HR MAX TEMP:  42; 6HR PCP:  0.01;                

PLATTEVILLE    CLOUDY    46  46 100 SE7       30.06S                  
6HR MIN TEMP:  40; 6HR MAX TEMP:  47; 6HR PCP:  0.03;                

$$

WIZ056-057-062-063-064-067-068-241900-
SOUTH CENTRAL WISCONSIN
  
CITY           SKY/WX    TMP DP  RH WIND       PRES   REMARKS
REEDSBURG      CLOUDY    51  34  51 NE5       30.07F                  
6HR MIN TEMP:  37; 6HR MAX TEMP:  51;                                

BARABOO/DELLS  CLOUDY    50  32  50 NE6       30.07F                  
6HR MIN TEMP:  37; 6HR MAX TEMP:  52;                                

LONE ROCK      CLOUDY    49  41  74 CALM      30.07F                  
6HR MIN TEMP:  40; 6HR MAX TEMP:  49; 6HR PCP:  0.01;                

MINERAL POINT  CLOUDY    48  46  93 E7        30.05F                  
MADISON        CLOUDY    52  35  52 NE9       30.06F                  
6HR MIN TEMP:  40; 6HR MAX TEMP:  53; 6HR PCP: TRACE;                

MIDDLETON      CLOUDY    51  38  62 N6        30.07F                  
6HR MIN TEMP:  40; 6HR MAX TEMP:  52;                                

WATERTOWN      CLOUDY    50  35  56 N7        30.07F                  
6HR MIN TEMP:  34; 6HR MAX TEMP:  51;                                

MONROE         CLOUDY    44  43  97 MISG      30.07S FOG              
6HR MIN TEMP:  40; 6HR MAX TEMP:  45; 6HR PCP:  0.03;                

JANESVILLE     CLOUDY    45  45 100 S7        30.09S FOG              
$$
 
WIZ051-052-058>065-066-070>072-241900-
SOUTHEAST WISCONSIN
  
CITY           SKY/WX    TMP DP  RH WIND       PRES   REMARKS
MILWAUKEE      CLOUDY    52  31  44 E7        30.09S                  
6HR MIN TEMP:  38; 6HR MAX TEMP:  57;                                

WAUKESHA       CLOUDY    52  30  43 E6        30.09F                  
MILWAUKEE/TIMM CLOUDY    54  28  37 NE6       30.09F                  
RACINE         CLOUDY    51  32  48 E8        30.10F                  
6HR MIN TEMP:  37; 6HR MAX TEMP:  53;                                

KENOSHA        CLOUDY    50  39  66 S6        30.09F                  
6HR MIN TEMP:  38; 6HR MAX TEMP:  50; 6HR PCP: TRACE;                

FOND DU LAC    FAIR      48  34  58 NE9       30.10R                  
6HR MIN TEMP:  34; 6HR MAX TEMP:  49;                                

SHEBOYGAN      PTSUNNY   47  35  63 NE16      30.10S                  
6HR MIN TEMP:  33; 6HR MAX TEMP:  51;                                

WEST BEND      PTSUNNY   50  32  50 N5        30.08F                  
JUNEAU         CLOUDY    48  34  58 NE7       30.09S                  
6HR MIN TEMP:  36; 6HR MAX TEMP:  49;                                

$$

LSZ147-162-241900-
LAKE SUPERIOR
  
STATION/POSITION TIME  TEMP    WIND        PRES    WAVE
                       AIR SEA DIR/SP/G            HT/PER
                 (UTC) (F)     (DEG/KT/KT) (MB)    (FT/S)
DEVILS ISLAND    1800   25      60/ 22/ 25 1028.8R
SAXON HARBOR     1730   28      50/ 22/ 28 1024.7R
$$
 
LMZ867-665-643>646-241900-
LAKE MICHIGAN
  
STATION/POSITION TIME  TEMP    WIND        PRES    WAVE
                       AIR SEA DIR/SP/G            HT/PER
                 (UTC) (F)     (DEG/KT/KT) (MB)    (FT/S)
NORTHPORT PIER   1730   31     340/ 11/ 13 1021.3S
KEWAUNEE LAKESHO 1748   38                 1020.0R
SHEBOYGAN LAKESH 1800   37      40/ 22/ 24 1020.0R
PORT WASHIN